If you wish to contribute or participate in the discussions about articles you are invited to join SKYbrary as a registered user

 Actions

Abu Simbel Airport

From SKYbrary Wiki

HEBL
Airport
ICAO: HEBL – IATA: ABS
Summary
Name Abu Simbel Airport
Region Africa
Territory Egypt EG.gif
Location Abu Simbel, Aswan
Serving Abu Simbel
Elevation 187.757 m
616 ft
616 ft187.757 m
Type medium airport
Coordinates 22° 22' 33.43" N, 31° 36' 42.20" E
Runways
Designator Length Width Surface ROPS
15/33 3000 m9,842.52 ft
45 m147.638 ft
ASP yes/yes


METAR
Observation HEBL 181500Z 15004KT CAVOK 41/05 Q1009 NOSIG
Station ABU SIMBEL (RUIN
Date/Time 18 June 2019 15:00:00
Wind direction 150°
Wind speed 04 kts
Lowest cloud amount clouds and visibility OK
Temperature 41°C
Dew point 5°C
Humidity 11%
QNH 1009 hPa
Weather condition n/a

Maps

Terrain

Loading map...

Airport Layout

Loading map...


Accidents & Serious Incidents at or in vicinity of HEBL

None on SKYbrary